Location: Big Bend
(41.8409°N, 79.0042°W)
Time: 01:56:42
(UTC+00:00)

Envisat - Visible Passes

Search period start: 06 October 2024 00:00
Search period end: 16 October 2024 00:00
Orbit: 762 x 764 km, 98.3° (Epoch: 05 October)

Date Brightness Start Highest point End Pass type
(mag) Time Alt. Az. Time Alt. Az. Time Alt. Az.
06 Oct 5.4 07:36:57 10° NE 07:38:51 19° NE 07:38:51 19° NE visible
06 Oct 4.0 09:15:45 10° N 09:18:59 30° NW 09:18:59 30° NW visible
07 Oct 4.1 08:37:54 10° N 08:40:56 37° N 08:40:56 37° N visible
08 Oct 4.9 08:00:34 10° NNE 08:02:53 26° NE 08:02:53 26° NE visible
08 Oct 4.5 09:40:19 10° NNW 09:43:01 20° NW 09:43:01 20° NW visible
09 Oct 5.8 07:23:53 10° NE 07:24:50 14° NE 07:24:50 14° NE visible
09 Oct 4.1 09:02:05 10° N 09:04:58 31° NNW 09:04:58 31° NNW visible
10 Oct 4.5 08:24:24 10° NNE 08:26:55 30° NNE 08:26:55 30° NNE visible
10 Oct 4.9 10:05:25 10° NNW 10:07:03 13° NW 10:07:03 13° NW visible
11 Oct 5.4 07:47:15 10° NNE 07:48:51 19° NE 07:48:51 19° NE visible
11 Oct 4.4 09:26:28 10° N 09:28:59 23° NW 09:28:59 23° NW visible
12 Oct 4.4 08:48:28 10° N 08:50:55 28° N 08:50:55 28° N visible
13 Oct 5.0 08:10:58 10° NNE 08:12:51 23° NNE 08:12:51 23° NNE visible
13 Oct 4.8 09:51:12 10° NNW 09:53:00 16° NW 09:53:00 16° NW visible
14 Oct 5.8 07:34:02 10° NE 07:34:47 13° NE 07:34:47 13° NE visible
14 Oct 4.5 09:12:43 10° N 09:14:56 23° NNW 09:14:56 23° NNW visible
15 Oct 4.8 08:34:53 10° N 08:36:51 24° N 08:36:51 24° N visible
